Weather History for KETC - January, 2013

Change the Weather History Date:

Wednesday, January 9, 2013

  Actual Average Record
Temperature  
Mean Temperature 52 °F -  
Max Temperature 70 °F 49 °F 74 °F (1989)
Min Temperature 33 °F 27 °F 8 °F (1970)
Degree Days  
Heating Degree Days 14    
Growing Degree Days 2 (Base 50)    
Moisture  
Dew Point 42 °F    
Average Humidity 78    
Maximum Humidity 96    
Minimum Humidity 44    
Precipitation  
Precipitation 0.00 in - - ()
Sea Level Pressure  
Sea Level Pressure 30.39 in    
Wind  
Wind Speed 1 mph (WSW)    
Max Wind Speed 12 mph    
Max Gust Speed -    
Visibility 8 miles    
Events      
Averages and records for this station are not official NWS values.
T = Trace of Precipitation, MM = Missing Value Source: NWS Daily Summary

Daily Weather History Graph

Daily Weather History Graph

Search for Another Location

Airport or City:

Trip Planner

Search our weather history database for the weather conditions in past years. The results will help you decide how hot, cold, wet, or windy it might be!

Date:

Astronomy

Jan. 09, 2013 Rise Set
Actual Time 7:20 AM EST 5:14 PM EST
Civil Twilight 6:52 AM EST 5:42 PM EST
Nautical Twilight 6:21 AM EST 6:14 PM EST
Astronomical Twilight 5:50 AM EST 6:44 PM EST
Moon 4:58 AM EST (1/9) 3:13 PM EST (1/9)
Length of Visible Light 10h 49m
Length of Day
9h 53m
Waning Crescent, 6% of the Moon is Illuminated
Jan 9
Waning Crescent
Jan 11
New
Jan 18
First Quarter
Jan 26
Full
Feb 3
Last Quarter

Hourly Weather History & Observations

Time (EST) Temp. Windchill Dew Point Humidity Pressure Visibility Wind Dir Wind Speed Gust Speed Precip Events Conditions
12:15 AM 35.8 °F - 34.5 °F 95% 30.40 in 5.0 mi Calm Calm - N/A   Clear
12:35 AM 35.4 °F - 34.2 °F 95% 30.39 in 5.0 mi Calm Calm - N/A   Clear
12:55 AM 35.4 °F - 34.2 °F 95% 30.40 in 7.0 mi Calm Calm - N/A   Clear
1:15 AM 34.9 °F - 33.4 °F 94% 30.39 in 5.0 mi Calm Calm - N/A   Clear
1:35 AM 34.3 °F - 33.3 °F 96% 30.38 in 5.0 mi Calm Calm - N/A   Clear
1:55 AM 34.7 °F - 33.4 °F 95% 30.38 in 4.0 mi Calm Calm - N/A   Clear
2:15 AM 33.8 °F - 32.5 °F 95% 30.38 in 7.0 mi Calm Calm - N/A   Clear
2:35 AM 34.5 °F - 33.1 °F 94% 30.38 in 4.0 mi Calm Calm - N/A   Clear
2:55 AM 34.2 °F - 32.9 °F 95% 30.37 in 5.0 mi Calm Calm - N/A   Clear
3:15 AM 35.1 °F - 33.8 °F 95% 30.39 in 7.0 mi Calm Calm - N/A   Clear
3:35 AM 33.8 °F 28.6 °F 32.5 °F 95% 30.40 in 10.0 mi West 5.8 mph - N/A   Scattered Clouds
3:55 AM 34.3 °F - 33.1 °F 95% 30.40 in 10.0 mi Calm Calm - N/A   Scattered Clouds
4:15 AM 35.1 °F 31.0 °F 33.8 °F 95% 30.40 in 10.0 mi WNW 4.6 mph - N/A   Clear
4:35 AM 35.8 °F - 34.5 °F 95% 30.40 in 10.0 mi Calm Calm - N/A   Clear
4:55 AM 35.6 °F - 34.2 °F 94% 30.40 in 7.0 mi Calm Calm - N/A   Scattered Clouds
5:15 AM 34.7 °F - 33.4 °F 95% 30.39 in 5.0 mi Calm Calm - N/A   Scattered Clouds
5:35 AM 35.1 °F - 33.8 °F 95% 30.39 in 3.0 mi Calm Calm - N/A   Clear
5:55 AM 34.2 °F - 32.9 °F 95% 30.39 in 3.0 mi Calm Calm - N/A   Clear
6:15 AM 34.0 °F - 32.7 °F 95% 30.39 in 3.0 mi Calm Calm - N/A   Clear
6:35 AM 34.0 °F - 32.9 °F 96% 30.40 in 4.0 mi Calm Calm - N/A   Clear
7:15 AM 33.4 °F - 32.4 °F 96% 30.42 in 5.0 mi Calm Calm - N/A   Clear
7:35 AM 33.4 °F - 32.4 °F 96% 30.43 in 3.0 mi Calm Calm - N/A   Clear
7:55 AM 33.6 °F - 32.5 °F 96% 30.43 in 5.0 mi Calm Calm - N/A   Clear
8:15 AM 35.1 °F - 34.0 °F 96% 30.44 in 7.0 mi Calm Calm - N/A   Clear
8:35 AM 38.1 °F - 36.9 °F 95% 30.44 in 10.0 mi Calm Calm - N/A   Clear
8:55 AM 40.6 °F - 38.8 °F 93% 30.44 in 10.0 mi Calm Calm - N/A   Clear
9:15 AM 43.5 °F - 39.0 °F 84% 30.44 in 10.0 mi Calm Calm - N/A   Clear
9:35 AM 46.8 °F - 39.9 °F 77% 30.44 in 10.0 mi Calm Calm - N/A   Clear
10:15 AM 51.3 °F - 42.4 °F 72% 30.43 in 10.0 mi Calm Calm - N/A   Clear
10:35 AM 54.3 °F - 44.1 °F 68% 30.43 in 10.0 mi Calm Calm - N/A   Clear
10:55 AM 56.7 °F - 45.3 °F 66% 30.42 in 10.0 mi SSE 3.5 mph - N/A   Clear
11:15 AM 59.4 °F - 46.4 °F 62% 30.41 in 10.0 mi Calm Calm - N/A   Clear
11:35 AM 61.7 °F - 47.7 °F 60% 30.41 in 10.0 mi Calm Calm - N/A   Clear
11:55 AM 63.7 °F - 49.1 °F 59% 30.39 in 10.0 mi WNW 5.8 mph - N/A   Clear
12:15 PM 65.3 °F - 50.0 °F 58% 30.39 in 10.0 mi WNW 5.8 mph - N/A   Clear
12:35 PM 66.9 °F - 50.0 °F 54% 30.38 in 10.0 mi WNW 4.6 mph - N/A   Clear
12:55 PM 67.6 °F - 49.6 °F 52% 30.37 in 10.0 mi West 4.6 mph - N/A   Clear
1:15 PM 68.2 °F - 49.6 °F 51% 30.36 in 10.0 mi WSW 3.5 mph - N/A   Clear
1:35 PM 69.6 °F - 48.9 °F 48% 30.36 in 10.0 mi West 4.6 mph - N/A   Clear
1:55 PM 70.0 °F - 48.2 °F 46% 30.36 in 10.0 mi West 8.1 mph - N/A   Clear
2:15 PM 70.7 °F - 48.0 °F 44% 30.35 in 10.0 mi West 11.5 mph - N/A   Clear
2:35 PM 70.7 °F - 47.7 °F 44% 30.35 in 10.0 mi WSW 5.8 mph - N/A   Clear
2:55 PM 69.8 °F - 48.0 °F 46% 30.36 in 10.0 mi SW 8.1 mph - N/A   Clear
3:15 PM 68.5 °F - 48.2 °F 48% 30.36 in 10.0 mi SW 4.6 mph - N/A   Clear
3:35 PM 68.0 °F - 48.7 °F 50% 30.36 in 10.0 mi Calm Calm - N/A   Clear
3:55 PM 68.4 °F - 49.1 °F 50% 30.35 in 10.0 mi WSW 3.5 mph - N/A   Clear
4:15 PM 67.6 °F - 48.6 °F 50% 30.36 in 10.0 mi WSW 3.5 mph - N/A   Clear
4:35 PM 66.6 °F - 48.7 °F 53% 30.37 in 10.0 mi Calm Calm - N/A   Clear
4:55 PM 65.7 °F - 48.7 °F 54% 30.37 in 10.0 mi SW 3.5 mph - N/A   Clear
5:15 PM 64.2 °F - 49.1 °F 58% 30.36 in 10.0 mi Calm Calm - N/A   Clear
5:35 PM 61.2 °F - 49.8 °F 66% 30.37 in 10.0 mi SSW 3.5 mph - N/A   Clear
5:55 PM 59.2 °F - 49.6 °F 71% 30.38 in 10.0 mi SSW 3.5 mph - N/A   Clear
6:15 PM 56.3 °F - 49.5 °F 78% 30.37 in 10.0 mi Calm Calm - N/A   Clear
6:35 PM 55.0 °F - 48.7 °F 79% 30.36 in 10.0 mi Calm Calm - N/A   Clear
6:55 PM 53.4 °F - 48.7 °F 84% 30.36 in 10.0 mi South 3.5 mph - N/A   Clear
7:15 PM 53.6 °F - 48.7 °F 84% 30.34 in 10.0 mi South 6.9 mph - N/A   Clear
7:35 PM 58.1 °F - 49.5 °F 73% 30.36 in 10.0 mi Calm Calm - N/A   Clear
7:55 PM 58.5 °F - 48.7 °F 70% 30.37 in 10.0 mi Calm Calm - N/A   Clear
8:15 PM 54.5 °F - 48.4 °F 80% 30.36 in 10.0 mi Calm Calm - N/A   Clear
8:35 PM 52.3 °F - 48.0 °F 85% 30.37 in 10.0 mi Calm Calm - N/A   Clear
9:15 PM 49.6 °F - 46.6 °F 89% 30.37 in 10.0 mi Calm Calm - N/A   Clear
9:35 PM 48.2 °F - 45.7 °F 91% 30.38 in 10.0 mi Calm Calm - N/A   Clear
9:55 PM 48.0 °F - 45.5 °F 91% 30.39 in 10.0 mi Calm Calm - N/A   Clear
10:15 PM 46.6 °F - 44.4 °F 92% 30.39 in 10.0 mi Calm Calm - N/A   Clear
10:35 PM 46.6 °F - 44.4 °F 92% 30.40 in 10.0 mi Calm Calm - N/A   Clear
11:15 PM 45.3 °F - 43.5 °F 93% 30.40 in 10.0 mi Calm Calm - N/A   Clear
11:35 PM 44.1 °F - 42.3 °F 93% 30.40 in 10.0 mi Calm Calm - N/A   Clear
11:55 PM 44.1 °F - 42.1 °F 93% 30.40 in 10.0 mi Calm Calm - N/A   Clear